| time (UTC) | temp C | wind direction | speed KPH | gust KPH | rain 1hr cm | rain 24hr cm | rain mn cm | humidity % | barometer mb |
| 20260505124411 | 12 | 45 | 4.8 | 9.7 | 0.00 | 0.43 | 0.43 | 82 | 1011.0 |
| 20260505123402 | 13 | 45 | 4.8 | 11.3 | 0.00 | 0.43 | 0.43 | 83 | 1010.9 |
| 20260505122329 | 12 | 68 | 3.2 | 8.0 | 0.00 | 0.43 | 0.43 | 84 | 1010.9 |
| 20260505120253 | 12 | 45 | 3.2 | 11.3 | 0.00 | 0.43 | 0.43 | 85 | 1011.2 |
| 20260505115200 | 12 | 135 | 1.6 | 6.4 | 0.00 | 0.43 | 0.43 | 86 | 1011.3 |
| 20260505114128 | 12 | 45 | 4.8 | 9.7 | 0.00 | 0.43 | 0.43 | 85 | 1011.3 |
| 20260505113058 | 11 | 68 | 4.8 | 11.3 | 0.00 | 0.43 | 0.43 | 86 | 1011.3 |
| 20260505112040 | 11 | 45 | 4.8 | 14.5 | 0.00 | 0.43 | 0.43 | 85 | 1011.3 |
| 20260505111028 | 11 | 45 | 4.8 | 14.5 | 0.00 | 0.43 | 0.43 | 86 | 1011.4 |
| 20260505101846 | 10 | 45 | 4.8 | 14.5 | 0.00 | 0.43 | 0.43 | 90 | 1011.9 |
| 20260505100821 | 10 | 45 | 4.8 | 12.9 | 0.00 | 0.43 | 0.43 | 91 | 1011.9 |
| 20260505095810 | 10 | 68 | 4.8 | 12.9 | 0.00 | 0.43 | 0.43 | 92 | 1011.8 |
| 20260505093733 | 10 | 45 | 6.4 | 12.9 | 0.00 | 0.43 | 0.43 | 92 | 1011.8 |
| 20260505092714 | 10 | 45 | 4.8 | 11.3 | 0.00 | 0.43 | 0.43 | 93 | 1011.9 |
| 20260505091645 | 10 | 68 | 3.2 | 11.3 | 0.00 | 0.43 | 0.43 | 94 | 1011.9 |
| 20260505090618 | 10 | 68 | 3.2 | 9.7 | 0.00 | 0.43 | 0.43 | 94 | 1011.9 |
| 20260505085551 | 9 | 68 | 3.2 | 9.7 | 0.00 | 0.43 | 0.43 | 94 | 1012.0 |
| 20260505084532 | 9 | 68 | 4.8 | 12.9 | 0.00 | 0.43 | 0.43 | 95 | 1012.1 |
| 20260505082450 | 8 | 68 | 3.2 | 8.0 | 0.00 | 0.43 | 0.43 | 95 | 1012.0 |
| 20260505081444 | 8 | 68 | 3.2 | 8.0 | 0.00 | 0.43 | 0.43 | 95 | 1012.1 |
| 20260505080423 | 8 | 68 | 4.8 | 11.3 | 0.00 | 0.43 | 0.43 | 95 | 1012.0 |
| 20260505075412 | 8 | 45 | 3.2 | 8.0 | 0.00 | 0.43 | 0.43 | 96 | 1012.0 |
| 20260505074347 | 8 | 68 | 3.2 | 6.4 | 0.00 | 0.43 | 0.43 | 96 | 1012.0 |
| 20260505073322 | 8 | 45 | 3.2 | 6.4 | 0.00 | 0.43 | 0.43 | 96 | 1012.0 |
| 20260505072318 | 8 | 68 | 3.2 | 9.7 | 0.00 | 0.43 | 0.43 | 96 | 1012.0 |
| 20260505071259 | 8 | 68 | 3.2 | 6.4 | 0.00 | 0.43 | 0.43 | 96 | 1012.0 |
| 20260505064211 | 7 | 68 | 3.2 | 8.0 | 0.03 | 0.43 | 0.43 | 96 | 1012.0 |
| 20260505063152 | 7 | 45 | 3.2 | 8.0 | 0.05 | 0.43 | 0.43 | 96 | 1012.1 |
| 20260505062131 | 7 | 45 | 3.2 | 6.4 | 0.05 | 0.43 | 0.43 | 96 | 1012.1 |
| 20260505061105 | 7 | 45 | 3.2 | 4.8 | 0.05 | 0.43 | 0.43 | 96 | 1012.1 |
| 20260505060032 | 7 | 45 | 3.2 | 6.4 | 0.05 | 0.43 | 0.43 | 96 | 1012.0 |
| 20260505055031 | 7 | 68 | 3.2 | 8.0 | 0.08 | 0.43 | 0.43 | 96 | 1012.2 |
| 20260505054011 | 7 | 45 | 3.2 | 6.4 | 0.08 | 0.41 | 0.41 | 96 | 1012.2 |
| 20260505052939 | 7 | 68 | 3.2 | 6.4 | 0.10 | 0.38 | 0.38 | 96 | 1012.2 |
| 20260505051927 | 7 | 68 | 3.2 | 8.0 | 0.13 | 0.38 | 0.38 | 96 | 1012.2 |
| 20260505050853 | 7 | 68 | 3.2 | 6.4 | 0.15 | 0.36 | 0.36 | 96 | 1012.0 |
| 20260505041722 | 7 | 68 | 3.2 | 9.7 | 0.15 | 0.23 | 0.23 | 95 | 1011.9 |
| 20260505040658 | 7 | 45 | 4.8 | 9.7 | 0.13 | 0.20 | 0.20 | 95 | 1012.0 |
| 20260505035658 | 7 | 45 | 4.8 | 9.7 | 0.08 | 0.15 | 0.15 | 95 | 1011.9 |
| 20260505034635 | 7 | 45 | 4.8 | 11.3 | 0.05 | 0.13 | 0.13 | 95 | 1012.0 |
| 20260505033606 | 7 | 45 | 4.8 | 11.3 | 0.05 | 0.10 | 0.10 | 95 | 1012.1 |
| 20260505032534 | 7 | 68 | 3.2 | 8.0 | 0.05 | 0.10 | 0.10 | 95 | 1012.2 |
| 20260505030444 | 8 | 45 | 4.8 | 9.7 | 0.05 | 0.08 | 0.08 | 95 | 1012.2 |
| 20260505025444 | 8 | 68 | 3.2 | 9.7 | 0.05 | 0.08 | 0.08 | 95 | 1012.2 |
| 20260505024420 | 8 | 45 | 4.8 | 9.7 | 0.03 | 0.05 | 0.05 | 94 | 1012.3 |
| 20260505023401 | 8 | 68 | 3.2 | 6.4 | 0.03 | 0.05 | 0.05 | 94 | 1012.4 |
| 20260505022326 | 8 | 68 | 4.8 | 8.0 | 0.03 | 0.05 | 0.05 | 94 | 1012.4 |
| 20260505021252 | 8 | 68 | 3.2 | 6.4 | 0.00 | 0.05 | 0.05 | 94 | 1012.5 |
| 20260505020220 | 8 | 45 | 3.2 | 6.4 | 0.00 | 0.05 | 0.05 | 94 | 1012.6 |
| 20260505015200 | 8 | 90 | 1.6 | 6.4 | 0.03 | 0.05 | 0.05 | 93 | 1012.6 |
| 20260505014135 | 8 | 90 | 3.2 | 6.4 | 0.03 | 0.05 | 0.05 | 93 | 1012.6 |
| 20260505013119 | 8 | 68 | 3.2 | 6.4 | 0.05 | 0.05 | 0.05 | 93 | 1012.6 |
| 20260505012102 | 8 | 45 | 3.2 | 8.0 | 0.05 | 0.05 | 0.05 | 92 | 1012.6 |
| 20260505011044 | 8 | 68 | 3.2 | 6.4 | 0.05 | 0.05 | 0.05 | 92 | 1012.7 |
| 20260505010027 | 8 | 68 | 4.8 | 12.9 | 0.03 | 0.03 | 0.03 | 91 | 1012.7 |
| 20260505004955 | 9 | 68 | 4.8 | 9.7 | 0.03 | 0.03 | 0.03 | 90 | 1012.9 |
| 20260505003938 | 9 | 90 | 1.6 | 8.0 | 0.00 | 0.00 | 0.00 | 89 | 1013.0 |
| 20260505002914 | 10 | 68 | 3.2 | 8.0 | 0.00 | 0.00 | 0.00 | 88 | 1013.0 |
| 20260505001842 | 10 | 68 | 3.2 | 6.4 | 0.00 | 0.00 | 0.00 | 87 | 1013.0 |
| 20260505000812 | 10 | 68 | 1.6 | 6.4 | 0.00 | 0.00 | 0.00 | 87 | 1013.1 |
| 20260504235749 | 10 | 68 | 1.6 | 8.0 | 0.00 | 0.00 | 0.00 | 87 | 1013.2 |
| 20260504234740 | 10 | 45 | 3.2 | 8.0 | 0.00 | 0.00 | 0.00 | 86 | 1013.2 |
| 20260504233725 | 10 | 68 | 1.6 | 6.4 | 0.00 | 0.00 | 0.00 | 87 | 1013.3 |
| 20260504232725 | 10 | 68 | 3.2 | 6.4 | 0.00 | 0.00 | 0.00 | 87 | 1013.4 |
| 20260504230623 | 10 | 45 | 3.2 | 11.3 | 0.00 | 0.00 | 0.00 | 88 | 1013.3 |
| 20260504225557 | 10 | 68 | 3.2 | 9.7 | 0.00 | 0.00 | 0.00 | 88 | 1013.4 |
| 20260504223510 | 10 | 68 | 3.2 | 4.8 | 0.00 | 0.00 | 0.00 | 87 | 1013.3 |
| 20260504222510 | 10 | 68 | 3.2 | 6.4 | 0.00 | 0.00 | 0.00 | 88 | 1013.5 |
| 20260504221452 | 10 | 68 | 1.6 | 6.4 | 0.00 | 0.00 | 0.00 | 88 | 1013.4 |
| 20260504220418 | 10 | 135 | 1.6 | 6.4 | 0.00 | 0.00 | 0.00 | 88 | 1013.5 |
| 20260504215346 | 10 | 90 | 1.6 | 4.8 | 0.00 | 0.00 | 0.00 | 88 | 1013.6 |
| 20260504214328 | 10 | 90 | 0.0 | 4.8 | 0.00 | 0.00 | 0.00 | 88 | 1013.7 |
| 20260504213255 | 10 | 90 | 0.0 | 3.2 | 0.00 | 0.00 | 0.00 | 89 | 1013.6 |
| 20260504212221 | 10 | 90 | 0.0 | 0.0 | 0.00 | 0.00 | 0.00 | 90 | 1013.7 |
| 20260504211153 | 10 | 90 | 0.0 | 1.6 | 0.00 | 0.00 | 0.00 | 89 | 1013.6 |
| 20260504210151 | 10 | 90 | 0.0 | 1.6 | 0.00 | 0.00 | 0.00 | 89 | 1013.6 |
| 20260504205128 | 10 | 90 | 0.0 | 0.0 | 0.00 | 0.00 | 0.00 | 90 | 1013.5 |
| 20260504204056 | 10 | 90 | 0.0 | 0.0 | 0.00 | 0.00 | 0.00 | 89 | 1013.5 |
| 20260504203030 | 11 | 90 | 0.0 | 0.0 | 0.00 | 0.00 | 0.00 | 88 | 1013.5 |
| 20260504201958 | 11 | 90 | 0.0 | 1.6 | 0.00 | 0.00 | 0.00 | 88 | 1013.6 |
| 20260504200955 | 11 | 90 | 0.0 | 1.6 | 0.00 | 0.00 | 0.00 | 88 | 1013.7 |
| 20260504194915 | 11 | 90 | 0.0 | 3.2 | 0.00 | 0.00 | 0.00 | 86 | 1013.6 |
| 20260504192842 | 12 | 68 | 1.6 | 4.8 | 0.00 | 0.00 | 0.00 | 85 | 1013.5 |
| 20260504191810 | 12 | 68 | 1.6 | 4.8 | 0.00 | 0.00 | 0.00 | 84 | 1013.5 |
| 20260504190742 | 12 | 68 | 3.2 | 8.0 | 0.00 | 0.00 | 0.00 | 83 | 1013.4 |
| 20260504185734 | 13 | 68 | 3.2 | 8.0 | 0.00 | 0.00 | 0.00 | 82 | 1013.3 |
| 20260504183645 | 13 | 45 | 3.2 | 8.0 | 0.00 | 0.00 | 0.00 | 81 | 1013.3 |
| 20260504180557 | 14 | 68 | 4.8 | 9.7 | 0.00 | 0.00 | 0.00 | 78 | 1013.1 |
| 20260504175551 | 14 | 68 | 4.8 | 9.7 | 0.00 | 0.00 | 0.00 | 77 | 1013.0 |
| 20260504174534 | 14 | 113 | 3.2 | 9.7 | 0.00 | 0.00 | 0.00 | 77 | 1013.0 |
| 20260504173511 | 14 | 68 | 3.2 | 14.5 | 0.00 | 0.00 | 0.00 | 76 | 1013.1 |
| 20260504172453 | 15 | 45 | 6.4 | 14.5 | 0.00 | 0.00 | 0.00 | 76 | 1013.0 |
| 20260504170422 | 15 | 68 | 4.8 | 9.7 | 0.00 | 0.00 | 0.00 | 76 | 1013.1 |
| 20260504160315 | 15 | 45 | 4.8 | 16.1 | 0.00 | 0.00 | 0.00 | 77 | 1013.1 |
| 20260504151121 | 16 | 45 | 6.4 | 17.7 | 0.00 | 0.00 | 0.00 | 75 | 1013.2 |
| 20260504150119 | 16 | 45 | 6.4 | 16.1 | 0.00 | 0.00 | 0.00 | 75 | 1013.2 |